Temperature
17 18 18 19 19 19 20 23 25 24 25 25 24 25 25 25 24 21 21 20 20 22 22 21 20 18 17 16 16 16 16 16 16 15 16 16 16 15 15 15 15 15 14 15 15 15 15 15 15
17 17 18 19 19 19 21 23 24 24 24 23 24 24 24 25 23 21 20 20 19 20 21 21 20 18 17 16 16 16 16 16 16 16 16 16 16 15 15 15 15 14 14 15 15 15 15 15 15
17 17 18 19 19 19 22 24 24 24 23 23 24 25 25 24 22 20 20 19 18 19 20 21 20 18 17 16 16 16 16 16 16 16 16 16 15 15 15 15 15 14 15 15 15 15 15 15 15
16 17 18 19 19 21 22 23 24 23 23 23 24 25 23 21 21 20 19 18 18 18 19 20 19 18 17 16 16 15 15 16 16 16 16 16 16 15 15 15 15 14 15 15 15 15 15 15 14
16 17 17 18 19 22 23 24 24 23 24 24 24 24 21 20 20 19 19 18 18 17 18 19 19 17 16 16 16 16 16 16 16 16 16 16 16 16 15 15 15 15 15 15 15 15 15 14 14
15 17 16 17 19 21 23 24 23 23 24 24 24 24 20 19 19 19 19 19 18 18 18 18 18 17 16 16 16 16 16 16 16 16 17 16 16 16 16 15 15 15 15 15 15 15 15 15 14
15 15 16 18 19 21 23 24 23 22 23 24 24 24 20 19 19 19 18 19 18 17 18 18 18 17 16 16 16 16 16 16 16 16 17 17 17 16 16 16 16 15 15 15 15 15 15 15 14
15 15 16 17 19 21 23 23 23 23 23 23 23 22 19 18 19 19 18 18 18 17 17 18 18 17 17 16 16 16 16 16 16 17 17 17 17 17 17 16 16 16 16 16 15 15 15 15 15
15 14 15 17 18 20 23 23 23 22 22 22 22 20 19 18 19 19 18 18 17 17 16 16 17 17 16 16 17 17 17 17 17 17 17 17 17 17 16 17 16 16 16 16 16 15 15 15 15
14 13 15 18 19 20 22 22 22 22 21 22 22 20 19 18 19 18 18 18 17 17 16 16 16 16 16 16 16 17 17 17 17 17 17 17 17 16 16 17 16 16 16 16 16 15 15 15 15
15 15 17 19 19 20 21 22 22 21 20 22 22 20 19 18 18 17 17 17 17 17 16 16 16 16 15 15 16 16 17 17 17 17 17 17 16 15 15 16 16 16 16 16 16 15 15 15 14
15 16 18 19 18 18 20 21 21 21 21 20 20 20 19 18 18 17 17 17 16 16 16 16 16 16 15 15 15 15 15 16 16 16 16 16 15 15 15 16 16 16 16 16 16 15 15 14 14
15 17 18 18 17 18 19 19 20 21 20 19 19 19 19 19 18 18 17 17 16 16 16 16 16 16 16 15 15 15 15 15 15 16 15 15 15 15 15 15 15 16 16 15 15 15 14 14 14
15 17 17 17 17 17 18 18 19 20 20 19 18 18 18 18 18 18 17 17 17 16 16 16 16 16 16 16 16 15 15 15 15 15 15 15 15 15 14 14 14 14 14 14 14 14 14 13 13
16 16 16 16 16 17 17 16 17 19 19 19 19 18 18 18 18 18 18 17 17 17 17 16 16 16 16 16 16 16 16 15 15 15 15 15 15 14 14 14 14 14 14 13 13 13 13 13 13
15 14 14 15 16 16 16 15 17 18 18 19 19 19 19 18 18 18 18 17 17 17 17 17 16 16 16 16 16 16 16 16 15 15 15 15 15 15 14 14 14 14 13 13 13 13 13 13 13
13 12 13 15 16 16 15 15 17 19 18 18 18 18 19 19 18 18 17 17 17 17 17 17 17 16 16 16 16 16 16 16 16 16 16 15 15 15 14 14 14 14 13 13 13 13 13 13 13
12 13 14 14 15 16 15 15 17 18 18 18 18 18 18 18 18 17 17 17 17 16 16 17 17 16 16 16 16 16 16 16 16 16 16 16 15 15 14 14 14 14 13 13 13 13 12 12 12
14 14 14 15 16 15 14 15 16 17 17 17 17 18 18 17 17 16 16 16 16 16 16 16 16 16 16 16 16 16 16 16 16 16 16 16 16 15 15 14 14 13 13 13 13 12 12 12 11
14 14 14 14 14 14 14 14 16 16 16 16 16 17 17 16 16 15 14 14 14 15 15 15 15 16 16 16 16 15 15 15 15 15 15 15 15 15 14 14 14 13 13 13 13 12 12 12 11
14 14 15 14 13 14 14 13 14 15 16 15 15 15 15 15 15 14 13 13 13 13 14 14 15 15 15 15 15 15 15 15 15 14 14 15 15 15 14 14 13 13 12 12 12 12 12 12 11
13 15 15 13 12 11 12 12 14 14 14 14 14 14 14 14 13 13 12 12 12 12 13 13 14 14 14 14 14 14 14 14 14 14 14 14 14 13 13 13 13 12 12 12 12 12 12 11 11
13 14 14 13 12 12 12 11 14 13 12 12 13 14 13 13 12 12 11 11 11 11 12 12 13 13 13 13 13 13 13 13 13 13 13 13 13 13 13 13 12 12 12 12 11 11 11 11 11
12 12 12 12 11 10 12 12 13 12 12 12 13 13 12 12 12 11 11 10 10 11 11 12 12 11 12 12 12 12 12 12 12 12 12 12 13 13 12 12 12 12 12 11 11 11 11 11 11
11 10 9 9 9 10 13 13 13 14 14 13 12 13 12 12 11 11 10 10 10 10 10 11 11 11 11 11 11 11 11 11 11 11 11 11 12 12 12 12 12 12 12 11 11 11 11 11 11
10 10 10 10 10 11 11 11 13 13 14 14 13 12 12 11 11 10 10 9 9 9 9 10 10 9 9 10 10 10 10 10 10 10 10 10 11 11 11 11 11 11 11 11 11 11 10 10 10
9 9 11 10 11 11 10 12 11 13 12 12 12 12 12 11 10 10 9 9 9 8 8 8 8 8 8 8 9 9 9 9 9 9 9 10 10 10 10 10 10 10 10 10 10 10 10 10 10
9 10 9 8 9 11 12 12 11 10 10 11 11 12 12 11 10 9 9 8 8 7 7 7 7 7 7 7 7 8 8 8 8 8 8 9 9 9 9 9 9 9 9 9 9 9 9 9 9
9 9 9 9 10 10 11 12 13 11 11 11 12 12 12 11 10 9 8 7 7 6 6 6 6 7 7 7 7 7 7 7 7 7 7 8 8 8 8 8 8 8 8 8 8 8 8 8 8
10 10 9 9 9 10 9 11 13 12 12 12 12 12 11 10 9 8 7 6 6 6 5 5 6 6 6 6 6 6 6 6 6 7 7 7 7 7 7 7 7 7 7 7 7 7 7 7 7
Wind_Speed
13 15 10 4 4 5 9 9 1 6 3 6 8 6 8 6 6 7 5 7 17 17 19 19 19 17 17 17 17 16 15 15 13 12 10 9 8 8 9 10 11 12 14 15 15 15 14 14 13
11 11 6 4 5 7 9 8 4 4 7 6 1 3 5 1 9 8 5 11 16 17 18 17 19 18 17 18 18 17 16 14 13 11 10 9 9 10 11 12 13 14 15 15 15 15 14 13 12
7 10 5 4 6 9 8 3 7 9 7 1 4 6 3 5 8 6 8 11 15 15 17 19 19 18 18 19 18 17 15 14 13 11 10 9 11 12 14 14 15 15 15 14 14 13 13 12 11
4 4 5 7 10 12 9 5 7 7 5 3 4 3 6 7 5 8 9 11 14 13 19 19 18 18 19 19 18 16 15 14 12 11 10 10 12 14 15 15 15 15 14 13 13 12 11 10 10
3 4 7 10 13 11 7 5 6 3 5 5 4 2 7 7 11 10 8 10 12 15 19 18 18 18 18 18 17 16 15 14 12 11 10 11 12 13 14 14 14 13 12 12 11 10 9 8 8
2 3 7 12 14 12 9 5 6 4 2 2 3 1 6 8 9 9 8 9 12 16 17 17 17 18 18 17 16 16 15 14 12 10 10 10 11 12 12 12 11 11 11 10 10 9 8 7 6
5 6 12 14 13 12 11 6 8 6 6 4 2 1 8 9 6 8 7 8 12 14 15 14 15 16 16 16 16 15 15 14 13 11 9 10 11 11 10 10 10 10 10 9 9 8 7 6 5
5 4 12 15 15 12 9 7 7 6 6 0 2 3 8 7 4 6 6 7 9 12 12 11 14 15 14 14 14 15 15 15 14 12 11 11 11 10 10 9 9 9 9 9 8 7 6 5 4
4 6 13 16 13 11 6 5 7 2 5 2 3 8 9 10 7 7 7 6 5 5 9 10 11 13 15 15 14 15 15 15 14 13 13 13 11 11 11 10 10 8 9 8 8 7 7 6 5
6 11 18 14 11 10 7 4 7 6 6 6 4 9 11 10 8 7 6 5 3 1 3 5 7 9 12 13 14 14 13 14 14 13 14 13 13 14 13 14 12 10 9 9 9 8 8 8 8
8 12 14 14 5 6 5 5 4 6 7 8 8 10 10 9 7 7 7 7 6 4 1 1 2 5 6 7 11 11 12 14 14 15 17 15 13 11 13 13 12 10 10 9 10 10 10 11 10
9 13 15 10 1 3 4 1 4 6 2 6 9 7 7 7 8 7 7 8 9 8 6 4 2 2 3 6 6 7 8 10 11 13 17 14 7 7 10 11 13 12 12 11 12 11 13 11 8
14 10 10 3 4 2 4 5 5 6 4 8 8 5 1 3 5 6 6 6 8 9 9 8 6 5 3 3 3 4 6 8 11 12 14 14 7 4 7 8 12 14 14 12 11 10 9 8 8
10 9 5 6 5 2 3 6 6 5 4 5 3 3 4 4 3 4 5 5 6 8 9 10 10 8 6 4 3 3 4 7 9 11 13 14 11 8 6 5 7 10 12 13 12 10 6 6 6
7 7 5 5 6 4 2 8 10 7 4 6 7 7 6 4 2 2 3 4 4 5 7 9 10 10 9 8 6 5 6 6 6 9 14 15 14 11 8 4 4 8 12 11 10 10 7 5 5
6 7 8 8 9 7 7 9 10 10 8 8 8 8 7 7 6 5 3 2 2 1 3 5 7 9 9 9 7 6 7 7 6 8 11 14 16 15 10 5 5 10 11 9 5 5 5 5 5
6 9 12 9 13 9 9 7 8 8 9 8 8 8 8 6 5 4 2 1 1 2 3 3 4 6 7 7 6 7 7 7 7 8 9 11 15 16 12 6 7 11 7 5 6 6 5 5 5
14 13 15 12 12 11 11 8 8 4 4 6 8 9 6 4 2 1 2 3 3 3 4 4 3 3 4 4 4 5 6 6 7 7 9 11 12 14 12 8 9 10 6 7 7 7 6 5 6
12 14 14 11 8 10 10 10 10 7 7 8 8 6 4 3 3 4 4 4 4 3 3 4 4 4 2 2 3 4 5 6 6 7 11 12 12 12 10 6 7 8 8 9 9 7 7 7 5
5 12 12 8 6 6 7 10 10 8 7 6 6 5 2 1 3 4 3 3 3 4 5 5 5 5 5 3 2 2 3 4 6 6 9 13 13 13 10 8 8 8 8 9 10 9 7 7 7
7 7 9 9 5 2 4 7 12 7 4 4 4 3 0 2 4 5 5 6 6 7 7 6 7 7 6 6 4 4 3 2 3 4 5 8 11 12 11 9 9 9 9 9 10 10 11 9 8
7 4 4 10 7 5 8 5 10 11 8 7 6 5 4 4 5 5 6 6 6 5 5 6 6 6 5 5 4 4 4 5 5 4 4 6 8 10 12 11 10 10 10 10 10 10 9 9 8
4 4 6 7 6 3 7 5 4 10 9 9 8 7 7 6 6 6 5 5 5 5 4 5 6 5 5 5 5 4 5 5 5 5 6 6 6 6 8 9 9 11 11 11 11 11 11 10 10
6 8 7 2 2 4 9 8 5 8 11 11 9 9 8 7 5 5 5 4 4 4 4 5 6 5 6 6 6 5 5 6 7 7 6 6 5 5 6 7 9 10 10 11 12 12 12 12 12
6 7 4 4 4 6 6 7 5 8 12 12 11 9 8 6 5 5 5 5 5 5 5 6 7 6 7 7 7 7 6 6 6 6 6 6 5 5 5 5 6 7 9 10 11 12 13 13 12
6 4 2 5 6 4 2 6 1 8 11 11 10 9 6 5 5 5 5 4 4 6 6 7 7 6 7 7 7 7 7 5 5 6 6 6 5 5 6 6 5 6 7 8 9 10 11 10 12
5 4 2 3 3 2 6 5 5 6 9 9 9 8 7 6 6 5 4 5 5 5 6 6 7 7 7 7 7 7 8 7 7 7 7 6 6 7 8 7 6 6 5 5 6 7 8 8 9
1 1 3 2 2 3 7 8 8 12 11 10 9 9 7 7 5 5 4 4 4 4 5 6 7 7 7 7 7 7 7 8 8 7 9 9 9 9 9 9 8 7 6 5 3 3 4 4 4
4 3 4 3 4 2 3 1 1 15 13 11 9 8 7 6 5 4 4 4 4 4 5 5 6 7 7 7 7 8 8 8 8 8 9 9 9 9 9 9 9 9 8 6 5 4 3 1 2
4 6 6 4 4 3 2 2 2 10 10 9 8 7 7 7 5 4 3 3 4 4 4 5 6 6 7 7 7 8 8 9 9 9 9 10 10 10 10 10 10 10 10 9 7 7 6 5 5
Wind_Direction
296 278 267 265 250 233 242 248 143 72 27 37 23 343 331 346 30 93 203 122 119 128 136 140 137 140 140 136 130 125 121 117 112 106 99 90 86 89 102 108 104 103 100 94 91 89 87 85 85
294 283 273 250 242 236 235 230 144 110 68 52 21 267 281 56 90 109 125 110 123 128 139 140 136 139 139 136 132 128 124 119 114 108 102 95 94 98 102 109 106 104 99 97 95 92 89 87 86
281 277 259 236 234 243 252 196 129 96 81 217 211 209 235 39 70 95 114 126 125 130 137 133 136 137 137 136 133 130 126 122 116 112 106 101 101 101 100 104 105 103 102 101 99 95 91 89 88
263 243 248 246 238 236 259 57 74 109 142 213 275 183 83 37 50 97 125 135 129 128 124 132 133 135 137 137 135 133 130 127 122 118 114 109 106 101 101 105 106 106 106 106 104 100 94 91 90
262 248 230 239 244 249 244 118 103 173 167 161 278 87 81 74 86 111 143 139 132 123 124 133 132 135 138 139 138 137 135 133 130 127 124 120 113 107 105 108 109 111 112 112 111 106 99 94 92
212 240 231 230 235 242 251 155 132 240 208 141 257 196 92 95 106 128 135 136 122 119 126 131 134 136 139 141 143 143 141 139 138 136 133 129 124 121 117 116 117 119 120 120 118 113 107 101 97
202 220 233 236 239 232 231 188 160 217 243 212 303 11 109 90 93 125 135 127 116 121 127 135 139 140 143 146 148 149 147 146 144 142 136 131 130 131 132 131 131 131 130 129 128 125 119 114 110
205 232 238 240 243 241 225 188 166 210 244 76 15 359 105 108 93 91 90 86 111 124 132 144 149 151 151 152 155 155 154 153 151 147 141 137 138 141 145 147 146 145 144 142 139 138 135 132 133
205 223 230 230 241 252 245 187 166 170 293 287 99 77 98 111 100 84 71 51 72 110 136 150 156 160 164 164 162 159 160 160 157 155 156 156 163 165 168 165 156 157 156 155 154 153 153 153 157
194 217 226 233 248 258 257 223 171 159 230 239 157 112 116 125 129 130 132 127 110 109 116 142 155 163 169 164 157 167 170 169 173 172 172 186 197 184 176 162 161 167 169 170 171 171 176 182 181
198 222 226 234 271 310 257 209 193 191 210 217 185 143 131 135 146 156 160 160 170 188 174 144 152 157 158 145 161 176 178 177 194 190 182 201 211 171 152 155 165 175 181 186 184 187 205 216 195
211 223 230 230 129 327 310 229 218 229 243 63 71 86 119 157 167 171 172 171 169 176 183 201 221 180 172 165 178 180 178 177 191 200 190 198 201 174 167 169 176 186 196 200 186 201 218 219 189
224 229 218 163 111 257 286 270 247 227 113 81 75 63 105 179 169 165 173 179 169 171 177 189 202 205 203 204 204 198 189 181 189 198 200 196 190 185 188 187 181 189 194 196 189 206 209 198 200
213 233 204 135 144 218 241 263 251 239 154 136 146 200 223 216 189 164 171 193 183 179 182 184 193 199 194 205 222 228 224 198 193 191 202 207 200 196 197 195 192 194 198 191 192 206 206 190 193
198 210 187 187 172 178 214 250 242 235 215 196 203 213 215 220 214 230 210 206 209 195 189 185 191 194 195 201 208 221 231 227 210 199 199 207 210 205 202 198 197 199 203 198 194 206 206 186 182
185 191 192 196 193 185 191 235 232 221 222 231 231 229 217 203 202 218 232 229 253 257 213 198 194 194 197 198 200 208 220 229 224 217 209 209 212 211 208 201 209 204 202 199 191 201 197 188 180
179 194 200 191 190 188 194 239 248 201 199 226 243 245 240 216 197 200 222 224 254 283 277 248 209 201 205 202 199 200 206 217 227 229 225 222 217 213 209 207 211 209 202 196 196 196 190 189 190
184 193 199 201 181 194 205 228 255 167 176 234 245 241 227 213 188 94 40 22 16 348 330 317 282 235 226 213 205 201 205 210 217 227 233 233 229 222 215 210 212 211 205 204 198 194 196 193 188
188 197 203 200 165 187 214 228 240 210 191 228 248 249 231 191 128 82 47 22 10 360 344 330 323 310 286 240 219 210 213 216 217 220 228 234 236 233 225 219 215 214 216 210 201 191 199 206 177
243 199 204 147 131 173 222 235 236 228 205 214 250 261 253 99 90 84 72 56 27 16 12 354 342 334 330 318 279 237 232 225 224 223 223 226 230 234 232 224 224 221 224 220 210 203 201 201 184
236 212 190 137 118 213 262 254 229 210 199 220 245 265 126 98 100 94 77 62 47 39 23 357 347 342 338 339 340 330 310 278 257 246 231 223 225 229 229 228 225 225 225 229 223 214 208 208 202
202 218 157 130 139 203 196 252 211 186 187 198 201 189 155 120 98 83 66 56 54 47 21 352 342 334 330 331 323 309 294 280 266 259 252 242 229 227 226 225 224 226 226 228 228 223 220 210 210
161 125 108 135 194 237 189 227 231 151 179 190 181 159 133 117 111 103 85 64 58 51 18 346 337 338 346 341 326 308 294 288 293 294 281 271 257 241 232 227 226 227 228 228 227 225 224 220 217
117 97 89 112 211 245 209 206 227 187 187 171 162 147 137 130 126 117 102 77 62 45 18 350 346 351 356 349 339 324 309 307 309 306 300 292 281 266 247 236 233 230 228 227 228 227 227 226 224
157 136 141 173 202 235 199 200 258 175 161 158 153 145 138 142 138 107 80 49 37 31 12 359 3 360 1 356 348 339 331 321 310 309 307 307 300 293 280 263 249 241 234 232 229 229 230 228 226
192 195 180 189 197 182 166 220 233 102 122 128 129 131 145 152 124 105 85 57 35 28 19 9 1 0 6 0 348 346 347 342 334 331 325 318 312 308 310 303 288 273 254 243 236 234 234 233 231
173 214 343 330 294 174 205 192 101 111 125 133 142 159 172 150 127 111 87 65 40 27 20 6 3 9 10 3 355 357 357 354 345 338 336 335 336 334 336 334 328 317 298 272 254 245 238 234 235
346 171 154 163 213 243 200 189 188 176 175 170 172 175 161 141 127 109 88 72 50 34 22 18 18 15 14 7 3 10 7 1 356 3 5 359 354 357 355 354 351 350 346 340 310 283 266 244 242
166 183 218 222 265 260 247 193 11 170 171 171 169 152 140 132 117 99 84 74 63 45 35 30 24 20 17 12 12 19 16 12 15 18 12 7 8 11 11 9 11 12 9 8 11 10 13 41 61
226 205 191 198 234 221 268 310 29 141 144 147 143 138 136 124 113 107 98 83 71 56 44 37 35 27 19 16 23 29 24 23 25 22 17 18 20 20 20 22 26 26 25 26 32 35 40 57 74
Height
1519 1521 1522 1523 1523 1522 1519 1506 1497 1500 1503 1505 1506 1507 1507 1508 1513 1523 1523 1523 1522 1523 1526 1529 1532 1534 1537 1539 1541 1543 1544 1546 1546 1547 1547 1547 1547 1548 1548 1549 1551 1552 1553 1554 1554 1554 1554 1554 1554
1519 1521 1523 1522 1522 1525 1515 1502 1500 1502 1506 1509 1511 1511 1510 1510 1514 1518 1521 1523 1522 1523 1527 1530 1533 1535 1537 1539 1542 1543 1545 1546 1547 1547 1548 1548 1548 1549 1550 1551 1553 1554 1555 1556 1556 1556 1556 1556 1556
1518 1520 1522 1518 1518 1518 1509 1497 1498 1503 1508 1511 1511 1511 1510 1513 1516 1518 1521 1523 1523 1524 1527 1530 1533 1535 1538 1540 1542 1544 1545 1546 1547 1548 1548 1549 1550 1551 1552 1553 1554 1555 1557 1557 1558 1558 1558 1558 1558
1518 1521 1520 1517 1514 1507 1502 1500 1500 1505 1509 1511 1510 1510 1512 1516 1517 1519 1521 1524 1525 1526 1527 1531 1533 1536 1538 1541 1543 1544 1545 1546 1547 1548 1549 1550 1551 1552 1553 1554 1556 1557 1558 1559 1559 1560 1560 1560 1561
1518 1519 1519 1516 1511 1502 1498 1500 1503 1506 1508 1510 1510 1509 1514 1518 1518 1519 1522 1525 1527 1527 1528 1532 1534 1536 1539 1541 1543 1544 1546 1547 1548 1549 1550 1551 1552 1553 1554 1555 1557 1558 1559 1560 1561 1561 1561 1562 1563
1518 1517 1518 1517 1509 1502 1498 1500 1504 1507 1508 1510 1510 1510 1517 1519 1520 1522 1524 1527 1529 1528 1529 1532 1534 1537 1539 1541 1543 1545 1546 1547 1548 1549 1550 1551 1552 1554 1555 1556 1557 1559 1560 1561 1562 1562 1563 1563 1564
1515 1515 1515 1512 1507 1502 1499 1499 1504 1508 1508 1510 1510 1510 1516 1519 1521 1524 1526 1528 1530 1529 1530 1532 1535 1537 1539 1541 1543 1545 1546 1547 1548 1549 1551 1552 1553 1554 1555 1556 1558 1559 1560 1561 1562 1563 1564 1564 1565
1510 1513 1512 1509 1506 1501 1497 1498 1502 1507 1509 1510 1511 1512 1516 1518 1521 1524 1526 1528 1530 1531 1531 1533 1535 1537 1539 1541 1543 1544 1546 1547 1548 1549 1551 1552 1553 1554 1555 1556 1558 1559 1560 1561 1562 1563 1564 1565 1565
1508 1514 1511 1507 1504 1500 1496 1498 1502 1506 1508 1510 1512 1515 1517 1518 1520 1522 1524 1527 1529 1532 1533 1533 1535 1537 1539 1541 1542 1544 1545 1547 1548 1549 1551 1552 1553 1554 1555 1556 1557 1559 1560 1561 1562 1563 1564 1565 1565
1504 1508 1504 1501 1499 1498 1497 1499 1501 1506 1509 1510 1512 1514 1516 1517 1519 1521 1523 1526 1528 1531 1533 1535 1536 1538 1539 1540 1541 1543 1544 1546 1547 1549 1550 1551 1552 1553 1554 1556 1557 1558 1559 1560 1561 1562 1563 1564 1565
1499 1498 1498 1498 1498 1498 1497 1499 1501 1505 1508 1509 1510 1513 1515 1517 1519 1521 1523 1525 1527 1529 1531 1533 1536 1538 1540 1540 1541 1542 1543 1544 1546 1547 1549 1551 1552 1553 1553 1554 1556 1557 1558 1559 1560 1561 1562 1563 1563
1495 1495 1496 1496 1497 1498 1498 1499 1502 1504 1507 1507 1508 1511 1515 1517 1519 1521 1523 1525 1526 1527 1529 1532 1534 1536 1538 1539 1540 1542 1543 1543 1545 1546 1548 1549 1551 1552 1552 1553 1554 1556 1557 1558 1559 1560 1560 1561 1562
1492 1492 1493 1495 1497 1499 1499 1501 1502 1504 1507 1507 1509 1512 1515 1517 1519 1521 1522 1524 1526 1527 1528 1530 1532 1533 1535 1537 1539 1541 1542 1543 1544 1545 1547 1548 1549 1550 1551 1551 1552 1553 1554 1555 1556 1558 1558 1559 1560
1490 1491 1492 1495 1498 1500 1501 1502 1503 1504 1506 1508 1510 1513 1515 1517 1518 1520 1521 1523 1525 1526 1527 1528 1530 1531 1533 1535 1537 1538 1541 1542 1543 1543 1545 1546 1547 1548 1549 1550 1550 1551 1552 1553 1554 1555 1557 1557 1558
1489 1492 1494 1495 1498 1501 1504 1506 1503 1504 1505 1508 1510 1512 1514 1515 1517 1519 1520 1521 1523 1524 1526 1527 1528 1529 1530 1532 1534 1536 1537 1539 1540 1541 1542 1543 1544 1545 1546 1547 1548 1548 1550 1551 1551 1552 1554 1554 1554
1489 1494 1498 1496 1497 1500 1507 1508 1501 1502 1504 1506 1508 1510 1512 1513 1515 1517 1518 1519 1521 1522 1524 1525 1526 1527 1528 1530 1531 1532 1534 1536 1537 1539 1539 1540 1540 1542 1542 1543 1544 1545 1546 1547 1548 1548 1550 1550 1550
1492 1496 1497 1494 1495 1497 1503 1504 1499 1498 1501 1504 1506 1507 1509 1510 1512 1514 1515 1517 1518 1520 1521 1523 1524 1525 1526 1527 1528 1529 1530 1532 1533 1534 1535 1536 1537 1537 1538 1539 1540 1541 1542 1542 1543 1544 1545 1545 1546
1490 1491 1492 1492 1491 1495 1500 1500 1497 1496 1499 1502 1503 1505 1506 1507 1509 1510 1512 1513 1514 1516 1517 1519 1521 1522 1523 1524 1525 1526 1526 1527 1528 1529 1530 1531 1532 1533 1533 1534 1535 1536 1536 1537 1537 1538 1539 1540 1541
1479 1484 1487 1488 1486 1493 1497 1498 1497 1495 1497 1500 1501 1502 1503 1505 1506 1507 1508 1510 1511 1512 1514 1515 1517 1518 1519 1520 1521 1521 1522 1522 1523 1524 1525 1526 1527 1527 1528 1528 1529 1530 1531 1531 1532 1533 1534 1535 1536
1476 1481 1483 1485 1489 1493 1496 1496 1493 1492 1494 1496 1498 1499 1501 1502 1503 1505 1506 1507 1508 1509 1510 1511 1512 1513 1514 1515 1516 1516 1517 1517 1517 1518 1519 1520 1520 1521 1522 1522 1523 1524 1525 1526 1527 1527 1527 1528 1530
1477 1478 1480 1486 1492 1494 1497 1497 1491 1489 1491 1494 1496 1497 1499 1500 1502 1503 1504 1505 1505 1505 1506 1507 1507 1508 1509 1510 1510 1510 1511 1511 1512 1513 1513 1514 1514 1515 1515 1516 1517 1517 1518 1519 1520 1521 1521 1521 1522
1480 1476 1477 1485 1497 1500 1500 1504 1485 1485 1490 1492 1494 1496 1498 1499 1501 1502 1503 1503 1503 1503 1503 1504 1504 1504 1504 1505 1505 1505 1506 1506 1507 1507 1508 1508 1509 1509 1509 1509 1510 1510 1511 1511 1512 1514 1514 1515 1514
1478 1477 1480 1487 1495 1495 1496 1502 1485 1483 1489 1491 1492 1494 1497 1499 1500 1501 1502 1502 1502 1501 1501 1501 1501 1501 1501 1500 1500 1500 1500 1501 1501 1502 1502 1502 1503 1503 1503 1503 1503 1503 1503 1504 1505 1506 1507 1507 1507
1480 1483 1488 1491 1496 1504 1492 1497 1487 1483 1482 1486 1490 1493 1496 1498 1500 1501 1501 1501 1501 1500 1499 1499 1498 1498 1497 1497 1497 1496 1496 1496 1496 1496 1496 1496 1497 1497 1497 1497 1496 1496 1496 1497 1497 1498 1499 1499 1499
1483 1492 1502 1506 1507 1502 1482 1486 1482 1471 1474 1481 1487 1491 1495 1497 1498 1499 1499 1499 1499 1498 1497 1496 1496 1495 1494 1494 1493 1493 1492 1492 1491 1491 1491 1490 1490 1490 1490 1490 1490 1489 1489 1490 1490 1490 1491 1491 1492
1484 1487 1496 1500 1499 1492 1487 1487 1477 1471 1474 1480 1486 1490 1493 1495 1496 1497 1497 1497 1496 1496 1495 1494 1493 1492 1491 1490 1490 1489 1488 1488 1487 1487 1486 1485 1485 1484 1484 1483 1483 1482 1482 1483 1483 1483 1483 1484 1484
1486 1489 1487 1492 1486 1488 1489 1480 1482 1476 1478 1481 1485 1489 1491 1493 1494 1495 1495 1495 1494 1493 1492 1491 1490 1489 1488 1487 1486 1485 1484 1484 1483 1482 1481 1480 1479 1478 1478 1477 1476 1476 1475 1475 1476 1476 1476 1476 1476
1486 1485 1491 1497 1493 1488 1478 1476 1479 1479 1480 1481 1484 1486 1489 1491 1492 1493 1493 1492 1492 1491 1490 1489 1488 1486 1485 1484 1483 1482 1481 1480 1479 1477 1476 1475 1474 1473 1472 1471 1470 1469 1469 1469 1469 1469 1469 1469 1469
1488 1489 1488 1488 1486 1490 1482 1478 1463 1468 1473 1478 1481 1484 1487 1489 1490 1491 1491 1490 1489 1488 1487 1487 1485 1484 1483 1482 1481 1479 1478 1477 1475 1474 1473 1471 1470 1468 1467 1466 1464 1464 1463 1463 1463 1463 1463 1463 1463
1482 1482 1485 1491 1488 1485 1490 1483 1464 1467 1472 1476 1480 1483 1485 1487 1488 1488 1488 1488 1487 1486 1485 1484 1483 1482 1481 1480 1478 1477 1476 1474 1473 1471 1470 1468 1467 1465 1463 1462 1461 1459 1459 1458 1458 1458 1458 1458 1458